When you browse on this site, cookies collect data to enhance your experience and personalize the content and advertising you see.
Visit our Privacy Policy to learn more. By continuing to use the site, you agree to this use of cookies and data.
  • Em Portugal
  • Lista de países
  • Para 7 dias
  • Temperatura da água
  • Mapas de satélite
  • Mapa do tempo
  • Widgets de tempo
  • user-avatar
    Iniciar Sessão

    Previsão horária em Warszyn

    Hoje, 18 Fevereiro, Segunda-feira

    Tempo Temperatura Precipitação Vento Pressão Humidade
    00:00 +4°C° 0 mm 1 m/s 754 mmHg 97%
    01:00 +2°C° 0 mm 0 m/s 754 mmHg 96%
    02:00 +3°C° 0 mm 1 m/s 754 mmHg 96%
    03:00 +3°C° 0 mm 1 m/s 753 mmHg 97%
    04:00 +3°C° 0 mm 1 m/s 753 mmHg 97%
    05:00 +3°C° 0 mm 1 m/s 753 mmHg 97%
    06:00 +2°C° 0 mm 2 m/s 753 mmHg 97%
    07:00 +1°C° 0 mm 2 m/s 753 mmHg 97%
    08:00 +3°C° 0 mm 2 m/s 753 mmHg 94%
    09:00 +3°C° 0 mm 3 m/s 753 mmHg 91%
    10:00 +4°C° 0 mm 3 m/s 753 mmHg 88%
    11:00 +5°C° 0 mm 4 m/s 753 mmHg 83%
    12:00 +6°C° 0 mm 4 m/s 752 mmHg 77%
    13:00 +7°C° 0 mm 4 m/s 752 mmHg 73%
    14:00 +8°C° 0 mm 3 m/s 752 mmHg 72%
    15:00 +8°C° 0 mm 3 m/s 751 mmHg 72%
    16:00 +8°C° 0 mm 3 m/s 751 mmHg 71%
    17:00 +7°C° 0 mm 3 m/s 750 mmHg 75%
    18:00 +5°C° 0 mm 3 m/s 750 mmHg 78%
    19:00 +5°C° 0 mm 2 m/s 750 mmHg 82%
    20:00 +5°C° 0 mm 2 m/s 750 mmHg 83%
    21:00 +4°C° 0 mm 2 m/s 749 mmHg 84%
    22:00 +4°C° 0 mm 2 m/s 749 mmHg 85%
    23:00 +3°C° 0 mm 2 m/s 749 mmHg 85%

    Amanhã, 19 Fevereiro, Terça-feira

    Tempo Temperatura Precipitação Vento Pressão Humidade
    00:00 +3°C° 0 mm 2 m/s 748 mmHg 86%
    01:00 +3°C° 0 mm 2 m/s 748 mmHg 86%
    02:00 +3°C° 0 mm 2 m/s 747 mmHg 86%
    03:00 +3°C° 0 mm 2 m/s 747 mmHg 87%
    04:00 +1°C° 0 mm 3 m/s 747 mmHg 87%
    05:00 +1°C° 0 mm 3 m/s 746 mmHg 87%
    06:00 +1°C° 0 mm 3 m/s 746 mmHg 87%
    07:00 0°C° 0 mm 4 m/s 745 mmHg 87%
    08:00 +1°C° 0 mm 4 m/s 745 mmHg 83%
    09:00 +3°C° 0 mm 5 m/s 745 mmHg 80%
    10:00 +5°C° 0 mm 5 m/s 745 mmHg 76%
    11:00 +6°C° 0 mm 5 m/s 745 mmHg 73%
    12:00 +7°C° 0 mm 5 m/s 745 mmHg 71%
    13:00 +8°C° 0 mm 5 m/s 745 mmHg 68%
    14:00 +7°C° 0.3 mm 5 m/s 745 mmHg 74%
    15:00 +6°C° 0.3 mm 5 m/s 745 mmHg 79%
    16:00 +5°C° 0.3 mm 4 m/s 745 mmHg 84%
    17:00 +5°C° 0.1 mm 5 m/s 745 mmHg 83%
    18:00 +5°C° 0.1 mm 5 m/s 745 mmHg 81%
    19:00 +5°C° 0.1 mm 5 m/s 745 mmHg 80%
    20:00 +5°C° 0.1 mm 5 m/s 745 mmHg 80%
    21:00 +5°C° 0.1 mm 5 m/s 745 mmHg 81%
    22:00 +5°C° 0.1 mm 5 m/s 745 mmHg 81%
    23:00 +3°C° 0.1 mm 6 m/s 745 mmHg 81%

    Depois de amanhã, 20 Fevereiro, Quarta-feira

    Tempo Temperatura Precipitação Vento Pressão Humidade
    00:00 +3°C° 0.1 mm 6 m/s 745 mmHg 81%
    01:00 +3°C° 0.1 mm 6 m/s 745 mmHg 81%
    02:00 +3°C° 0.1 mm 6 m/s 745 mmHg 81%
    03:00 +3°C° 0.1 mm 6 m/s 745 mmHg 81%
    04:00 +2°C° 0.1 mm 6 m/s 745 mmHg 81%
    05:00 +2°C° 0.1 mm 6 m/s 746 mmHg 80%
    06:00 +2°C° 0.1 mm 6 m/s 746 mmHg 79%
    07:00 +2°C° 0.1 mm 6 m/s 746 mmHg 79%
    08:00 +2°C° 0 mm 6 m/s 747 mmHg 78%
    09:00 +2°C° 0 mm 6 m/s 747 mmHg 77%
    10:00 +2°C° 0 mm 6 m/s 748 mmHg 77%
    11:00 +3°C° 0 mm 6 m/s 748 mmHg 75%
    12:00 +3°C° 0 mm 6 m/s 749 mmHg 74%
    13:00 +3°C° 0 mm 6 m/s 749 mmHg 72%
    14:00 +3°C° 0 mm 6 m/s 749 mmHg 73%
    15:00 +3°C° 0 mm 5 m/s 750 mmHg 73%
    16:00 +3°C° 0 mm 5 m/s 750 mmHg 74%
    17:00 +3°C° 0 mm 5 m/s 750 mmHg 78%
    18:00 +4°C° 0 mm 4 m/s 750 mmHg 81%
    19:00 +4°C° 0 mm 3 m/s 751 mmHg 85%
    20:00 +3°C° 0 mm 3 m/s 751 mmHg 88%
    21:00 +4°C° 0 mm 2 m/s 751 mmHg 92%
    22:00 +3°C° 0 mm 2 m/s 751 mmHg 95%
    23:00 +4°C° 0.2 mm 2 m/s 751 mmHg 95%

    21 Fevereiro, Quinta-feira

    Tempo Temperatura Precipitação Vento Pressão Humidade
    00:00 +4°C° 0.2 mm 2 m/s 751 mmHg 94%
    01:00 +4°C° 0.2 mm 3 m/s 751 mmHg 94%
    02:00 +4°C° 0.3 mm 3 m/s 750 mmHg 93%
    03:00 +4°C° 0.3 mm 3 m/s 750 mmHg 93%
    04:00 +4°C° 0.3 mm 3 m/s 749 mmHg 93%
    05:00 +4°C° 0.3 mm 4 m/s 749 mmHg 92%
    06:00 +4°C° 0.3 mm 4 m/s 749 mmHg 92%
    07:00 +4°C° 0.3 mm 4 m/s 749 mmHg 92%
    08:00 +5°C° 0.5 mm 4 m/s 749 mmHg 92%
    09:00 +5°C° 0.5 mm 4 m/s 749 mmHg 92%
    10:00 +5°C° 0.5 mm 5 m/s 749 mmHg 92%
    11:00 +5°C° 0.2 mm 4 m/s 749 mmHg 91%
    12:00 +6°C° 0.2 mm 4 m/s 750 mmHg 90%
    13:00 +6°C° 0.2 mm 4 m/s 750 mmHg 90%
    14:00 +6°C° 0.1 mm 4 m/s 750 mmHg 89%
    15:00 +6°C° 0.1 mm 5 m/s 751 mmHg 89%
    16:00 +6°C° 0.1 mm 5 m/s 751 mmHg 88%
    17:00 +5°C° 0.1 mm 5 m/s 752 mmHg 88%
    18:00 +4°C° 0.1 mm 4 m/s 753 mmHg 88%
    19:00 +3°C° 0.1 mm 4 m/s 753 mmHg 89%
    20:00 +3°C° 0 mm 4 m/s 754 mmHg 85%
    21:00 +2°C° 0 mm 3 m/s 755 mmHg 82%
    22:00 +1°C° 0 mm 3 m/s 756 mmHg 79%
    23:00 0°C° 0 mm 3 m/s 757 mmHg 80%

    22 Fevereiro, Sexta-feira

    Tempo Temperatura Precipitação Vento Pressão Humidade
    00:00 +1°C° 0 mm 2 m/s 758 mmHg 80%
    01:00 -1°C° 0 mm 2 m/s 759 mmHg 80%
    02:00 -1°C° 0 mm 2 m/s 759 mmHg 79%
    03:00 -1°C° 0 mm 2 m/s 760 mmHg 77%
    04:00 -1°C° 0 mm 2 m/s 761 mmHg 76%
    05:00 -1°C° 0 mm 2 m/s 761 mmHg 75%
    06:00 -2°C° 0 mm 2 m/s 762 mmHg 74%
    07:00 -2°C° 0 mm 2 m/s 763 mmHg 73%
    08:00 -1°C° 0 mm 2 m/s 764 mmHg 68%
    09:00 -1°C° 0 mm 3 m/s 765 mmHg 63%
    10:00 0°C° 0 mm 3 m/s 766 mmHg 59%
    11:00 0°C° 0 mm 3 m/s 766 mmHg 55%
    12:00 +1°C° 0 mm 2 m/s 767 mmHg 52%
    13:00 +2°C° 0 mm 2 m/s 767 mmHg 49%
    14:00 +2°C° 0 mm 2 m/s 767 mmHg 48%
    15:00 +2°C° 0 mm 1 m/s 767 mmHg 47%
    16:00 +2°C° 0 mm 1 m/s 767 mmHg 47%
    17:00 +2°C° 0 mm 1 m/s 768 mmHg 49%
    18:00 +1°C° 0 mm 1 m/s 768 mmHg 52%
    19:00 0°C° 0 mm 1 m/s 768 mmHg 55%
    20:00 -2°C° 0 mm 2 m/s 768 mmHg 54%
    21:00 -2°C° 0 mm 2 m/s 768 mmHg 52%
    22:00 -2°C° 0 mm 2 m/s 769 mmHg 51%
    23:00 -2°C° 0 mm 2 m/s 768 mmHg 51%

    23 Fevereiro, Sábado

    Tempo Temperatura Precipitação Vento Pressão Humidade
    00:00 -2°C° 0 mm 2 m/s 768 mmHg 51%
    01:00 -2°C° 0 mm 3 m/s 768 mmHg 50%
    02:00 -2°C° 0 mm 3 m/s 768 mmHg 51%
    03:00 -2°C° 0 mm 3 m/s 767 mmHg 52%
    04:00 -1°C° 0 mm 3 m/s 767 mmHg 53%
    05:00 -1°C° 0 mm 3 m/s 766 mmHg 56%
    06:00 -1°C° 0 mm 3 m/s 766 mmHg 58%
    07:00 -1°C° 0 mm 3 m/s 766 mmHg 60%
    08:00 0°C° 0 mm 3 m/s 765 mmHg 61%
    09:00 0°C° 0 mm 4 m/s 765 mmHg 61%
    10:00 +1°C° 0 mm 4 m/s 765 mmHg 62%
    11:00 +1°C° 0 mm 4 m/s 764 mmHg 68%
    12:00 +3°C° 0 mm 4 m/s 764 mmHg 75%
    13:00 +4°C° 0 mm 4 m/s 763 mmHg 82%
    14:00 +4°C° 0 mm 4 m/s 763 mmHg 85%
    15:00 +4°C° 0 mm 4 m/s 763 mmHg 88%
    16:00 +4°C° 0 mm 4 m/s 762 mmHg 92%
    17:00 +4°C° 0 mm 4 m/s 762 mmHg 93%
    18:00 +3°C° 0 mm 4 m/s 762 mmHg 94%
    19:00 +3°C° 0 mm 3 m/s 762 mmHg 96%
    20:00 +2°C° 0 mm 3 m/s 762 mmHg 95%
    21:00 +2°C° 0 mm 3 m/s 762 mmHg 95%
    22:00 +3°C° 0 mm 2 m/s 762 mmHg 95%
    23:00 +2°C° 0 mm 2 m/s 762 mmHg 95%
    Mostrar mais